Hourly Data Report for October 28, 2018

TORONTO CITY
ONTARIO
Current Station Operator: ECCC - MSC

43°40'00.000" N
79°24'00.000" W
112.50 m
6158355
71508
XTO

Download Data

Hourly Data (October 2018)
Hourly Data Report for October 28, 2018
TIME
LST
Temp Definition
°C
Dew Point Definition
°C
Rel Hum Definition
%
Precip. Amount Definition
mm

Wind Dir Definition
10's deg

Wind Spd Definition
km/h
Visibility Definition
km
Stn Press Definition
kPa
Hmdx Definition


Wind Chill Definition


Weather Definition


00:00 2.0 0.6 91 0.0 LegendMM LegendMM   99.56     LegendNANA
01:00 1.8 0.4 90 0.5 LegendMM LegendMM   99.51     LegendNANA
02:00 2.1 0.6 90 0.4 LegendMM LegendMM   99.48     LegendNANA
03:00 2.1 0.7 91 0.2 LegendMM LegendMM   99.45     LegendNANA
04:00 2.1 0.6 90 0.0 LegendMM LegendMM   99.42     LegendNANA
05:00 1.8 0.4 90 0.2 LegendMM LegendMM   99.43     LegendNANA
06:00 1.8 0.4 90 0.2 LegendMM LegendMM   99.41     LegendNANA
07:00 1.9 0.4 90 0.0 LegendMM LegendMM   99.41     LegendNANA
08:00 2.2 0.8 90 0.2 LegendMM LegendMM   99.39     LegendNANA
09:00 2.5 0.8 88 0.0 LegendMM LegendMM   99.36     LegendNANA
10:00 3.1 0.8 85 0.0 LegendMM LegendMM   99.32     LegendNANA
11:00 3.6 1.0 83 0.0 LegendMM LegendMM   99.27     LegendNANA
12:00 3.8 1.7 86 0.0 LegendMM LegendMM   99.24     LegendNANA
13:00 4.2 2.5 89 0.2 LegendMM LegendMM   99.15     LegendNANA
14:00 5.3 3.0 85 0.0 LegendMM LegendMM   99.08     LegendNANA
15:00 5.6 2.7 82 0.0 LegendMM LegendMM   99.04     LegendNANA
16:00 5.6 2.5 81 0.0 LegendMM LegendMM   99.02     LegendNANA
17:00 5.6 2.4 80 0.0 LegendMM LegendMM   99.03     LegendNANA
18:00 5.7 2.9 82 0.0 LegendMM LegendMM   99.05     LegendNANA
19:00 5.9 2.9 81 0.0 LegendMM LegendMM   99.04     LegendNANA
20:00 6.1 3.5 84 0.0 LegendMM LegendMM   99.04     LegendNANA
21:00 6.1 3.9 86 0.0 LegendMM LegendMM   99.02     LegendNANA
22:00 6.0 4.3 89 0.2 LegendMM LegendMM   99.02     LegendNANA
23:00 6.0 4.4 89 0.0 LegendMM LegendMM   99.02     LegendNANA

Notes on Data Quality.

Legend

  • E = Estimated
  • M = Missing
  • NA = Not Available*
  • [empty] = Indicates an unobserved value
Date modified: